FW4678 Weather Reports


time (UTC)temp
F
wind
direction
speed
knots
gust
knots
rain 1hr
in
rain 24hr
in
rain mn
in
humidity
%
barometer
mb
20260506044553 64 0 0.0 0.9 0.00 0.00 0.00 89 1018.3
20260506044029 64 0 0.0 0.9 0.00 0.00 0.00 89 1018.2
20260506043529 64 0 0.0 0.9 0.00 0.00 0.00 88 1018.3
20260506043044 64 0 0.0 0.9 0.00 0.00 0.00 88 1018.3
20260506042530 64 252 0.0 0.9 0.00 0.00 0.00 88 1018.5
20260506042030 64 0 0.0 0.9 0.00 0.00 0.00 87 1018.3
20260506041542 64 0 0.0 0.9 0.00 0.00 0.00 87 1018.3
20260506041029 64 0 0.0 1.7 0.00 0.00 0.00 87 1018.4
20260506040529 64 230 0.0 1.7 0.00 0.00 0.00 87 1018.5
20260506040047 64 215 0.0 1.7 0.00 0.00 0.00 86 1018.5
20260506035532 64 0 0.0 0.9 0.00 0.00 0.00 86 1018.4
20260506035029 64 236 0.0 0.9 0.00 0.00 0.00 86 1018.4
20260506034539 64 0 0.0 0.9 0.00 0.00 0.00 86 1018.5
20260506034028 64 236 0.0 0.9 0.00 0.00 0.00 86 1018.5
20260506033528 64 0 0.0 0.9 0.00 0.00 0.00 86 1018.5
20260506033041 64 0 0.0 0.9 0.00 0.00 0.00 86 1018.5
20260506032530 64 0 0.0 0.9 0.00 0.00 0.00 85 1018.5
20260506032030 64 236 0.0 0.0 0.00 0.00 0.00 85 1018.4
20260506031545 65 0 0.0 1.7 0.00 0.00 0.00 85 1018.5
20260506031030 65 0 0.0 1.7 0.00 0.00 0.00 84 1018.7
20260506030529 65 237 0.0 1.7 0.00 0.00 0.00 84 1018.6
20260506030047 65 0 0.0 1.7 0.00 0.00 0.00 84 1018.6
20260506025608 65 228 0.0 0.9 0.00 0.00 0.00 84 1018.7
20260506025031 65 226 0.0 1.7 0.00 0.00 0.00 83 1018.6
20260506024549 65 154 0.0 1.7 0.00 0.00 0.00 83 1018.6
20260506024029 66 139 0.0 1.7 0.00 0.00 0.00 83 1018.5
20260506023529 66 0 0.0 1.7 0.00 0.00 0.00 83 1018.7
20260506023055 66 199 0.0 1.7 0.00 0.00 0.00 82 1018.7
20260506022529 66 0 0.9 2.6 0.00 0.00 0.00 82 1018.7
20260506022032 66 0 0.0 3.5 0.00 0.00 0.00 82 1018.7
20260506021555 66 211 1.7 3.5 0.00 0.00 0.00 83 1018.7
20260506021029 66 232 0.9 3.5 0.00 0.00 0.00 82 1018.6
20260506020530 66 231 1.7 3.5 0.00 0.00 0.00 82 1018.5
20260506020047 66 225 0.9 3.5 0.00 0.00 0.00 82 1018.5
20260506015535 66 174 0.0 0.9 0.00 0.00 0.00 81 1018.4
20260506015034 66 198 0.0 2.6 0.00 0.00 0.00 81 1018.3
20260506014546 66 232 0.9 2.6 0.00 0.00 0.00 81 1018.4
20260506014029 66 226 0.9 2.6 0.00 0.00 0.00 81 1018.3
20260506013529 66 231 0.9 1.7 0.00 0.00 0.00 81 1018.4
20260506013042 66 175 0.0 2.6 0.00 0.00 0.00 81 1018.3
20260506012533 66 189 0.0 2.6 0.00 0.00 0.00 80 1018.2
20260506012029 66 206 0.9 2.6 0.00 0.00 0.00 80 1018.2
20260506011542 66 204 0.9 2.6 0.00 0.00 0.00 79 1018.3
20260506011029 66 226 0.0 1.7 0.00 0.00 0.00 79 1018.2
20260506010529 66 226 0.0 1.7 0.00 0.00 0.00 78 1018.3
20260506010054 66 139 0.9 1.7 0.00 0.00 0.00 77 1018.3
20260506005530 66 205 0.0 1.7 0.00 0.00 0.00 77 1018.1
20260506005032 66 202 0.0 2.6 0.00 0.00 0.00 76 1018.2
20260506004551 66 197 0.9 2.6 0.00 0.00 0.00 76 1018.1
20260506004030 67 127 0.0 1.7 0.00 0.00 0.00 75 1018.1
20260506003530 67 134 0.0 2.6 0.00 0.00 0.00 75 1018.0
20260506003045 67 160 0.9 2.6 0.00 0.00 0.00 74 1018.1
20260506002533 67 219 0.9 4.3 0.00 0.00 0.00 73 1018.2
20260506002029 68 0 0.9 7.0 0.00 0.00 0.00 73 1018.0
20260506001546 68 181 1.7 7.0 0.00 0.00 0.00 72 1018.1
20260506001030 68 218 2.6 6.1 0.00 0.00 0.00 72 1018.1
20260506000530 68 233 2.6 6.1 0.00 0.00 0.00 71 1018.1
20260506000041 69 224 3.5 6.1 0.00 0.00 0.00 71 1018.0
20260505235529 69 205 2.6 8.7 0.00 0.00 0.00 70 1018.1
20260505235029 69 229 3.5 8.7 0.00 0.00 0.00 69 1018.0
20260505234601 69 205 5.2 8.7 0.00 0.00 0.00 69 1017.9
20260505234032 70 233 4.3 8.7 0.00 0.00 0.00 68 1018.0
20260505233529 70 250 6.1 8.7 0.00 0.00 0.00 68 1018.0
20260505233046 70 224 4.3 9.6 0.00 0.00 0.00 67 1018.1
20260505232529 70 236 4.3 9.6 0.00 0.00 0.00 67 1018.0
20260505232029 71 219 4.3 7.8 0.00 0.00 0.00 66 1018.1
20260505231540 71 257 4.3 11.3 0.00 0.00 0.00 65 1018.1
20260505231028 71 236 4.3 12.2 0.00 0.00 0.00 65 1018.0
20260505230529 71 206 7.0 14.8 0.00 0.00 0.00 64 1018.0
20260505230045 71 224 6.1 14.8 0.00 0.00 0.00 64 1018.0
20260505225530 71 193 7.0 13.0 0.00 0.00 0.00 64 1018.0
20260505225030 72 235 7.0 14.8 0.00 0.00 0.00 63 1018.0
20260505224543 72 229 8.7 14.8 0.00 0.00 0.00 63 1018.1
20260505224033 72 158 7.8 13.0 0.00 0.00 0.00 62 1018.1
20260505223529 72 167 7.0 13.0 0.00 0.00 0.00 62 1017.9
20260505223045 72 220 8.7 13.0 0.00 0.00 0.00 62 1018.0
20260505222533 73 223 5.2 11.3 0.00 0.00 0.00 63 1018.0
20260505222029 73 273 6.1 9.6 0.00 0.00 0.00 63 1017.9
20260505221546 72 250 5.2 11.3 0.00 0.00 0.00 62 1018.0
20260505221031 73 234 6.1 11.3 0.00 0.00 0.00 62 1018.0
20260505220529 73 220 5.2 15.6 0.00 0.00 0.00 63 1017.9
20260505220042 72 174 7.0 15.6 0.00 0.00 0.00 63 1017.8
20260505215529 72 231 7.0 16.5 0.00 0.00 0.00 63 1017.9
20260505215029 72 158 8.7 16.5 0.00 0.00 0.00 63 1017.9
20260505214603 72 172 7.0 16.5 0.00 0.00 0.00 61 1017.9
20260505214030 72 221 7.0 16.5 0.00 0.00 0.00 62 1017.8
20260505213529 72 201 6.1 13.9 0.00 0.00 0.00 63 1017.8
20260505213057 72 236 7.0 16.5 0.00 0.00 0.00 63 1017.8
20260505212531 72 219 11.3 16.5 0.00 0.00 0.00 64 1017.8
20260505212029 73 226 7.8 18.2 0.00 0.00 0.00 63 1017.8
20260505211548 73 173 7.8 18.2 0.00 0.00 0.00 63 1017.9
20260505211033 72 228 7.0 12.2 0.00 0.00 0.00 63 1017.8
20260505210530 72 222 6.1 14.8 0.00 0.00 0.00 62 1018.0
20260505210042 72 166 7.0 14.8 0.00 0.00 0.00 62 1018.2
20260505205529 73 211 5.2 13.9 0.00 0.00 0.00 61 1018.1
20260505205029 73 209 5.2 13.9 0.00 0.00 0.00 62 1017.9
20260505204554 73 159 5.2 13.9 0.00 0.00 0.00 63 1018.0
20260505204029 72 210 8.7 13.9 0.00 0.00 0.00 63 1018.0
20260505203530 72 203 6.1 18.2 0.00 0.00 0.00 63 1018.2
20260505203052 72 184 11.3 18.2 0.00 0.00 0.00 62 1018.0
20260505202530 73 185 7.8 17.4 0.00 0.00 0.00 62 1018.0
20260505202030 73 200 7.8 17.4 0.00 0.00 0.00 64 1018.0
20260505201545 73 226 9.6 14.8 0.00 0.00 0.00 60 1018.1
20260505201031 74 162 8.7 13.9 0.00 0.00 0.00 62 1018.2
20260505200530 74 229 7.8 13.0 0.00 0.00 0.00 62 1018.3
20260505200057 74 162 6.1 12.2 0.00 0.00 0.00 62 1018.3
20260505195529 74 243 5.2 12.2 0.00 0.00 0.00 63 1018.5
20260505195029 74 256 7.0 12.2 0.00 0.00 0.00 64 1018.6
20260505194547 73 215 5.2 14.8 0.00 0.00 0.00 63 1018.5
20260505194029 73 129 6.1 14.8 0.00 0.00 0.00 64 1018.6
20260505193528 73 231 7.8 14.8 0.00 0.00 0.00 63 1018.7
20260505193048 74 193 7.8 13.9 0.00 0.00 0.00 63 1018.7
20260505192533 74 196 5.2 11.3 0.00 0.00 0.00 64 1018.8
20260505192029 73 196 5.2 13.9 0.00 0.00 0.00 65 1018.8
20260505191539 73 243 7.8 13.9 0.00 0.00 0.00 65 1018.9
20260505191029 73 251 8.7 13.9 0.00 0.00 0.00 63 1018.9
20260505190529 73 173 7.8 15.6 0.00 0.00 0.00 64 1019.0
20260505190045 73 245 9.6 15.6 0.00 0.00 0.00 64 1019.0
20260505185531 73 252 7.8 13.9 0.00 0.00 0.00 64 1019.1
20260505185029 73 165 7.0 14.8 0.00 0.00 0.00 64 1019.1
20260505184545 73 223 8.7 14.8 0.00 0.00 0.00 65 1019.0
20260505184030 73 220 9.6 14.8 0.00 0.00 0.00 64 1019.2
20260505183529 73 226 7.8 17.4 0.00 0.00 0.00 63 1019.2
20260505183042 73 206 8.7 17.4 0.00 0.00 0.00 64 1019.1
20260505182529 73 211 7.8 16.5 0.00 0.00 0.00 64 1019.3
20260505182029 73 211 11.3 16.5 0.00 0.00 0.00 63 1019.3
20260505181542 74 246 8.7 15.6 0.00 0.00 0.00 61 1019.1
20260505181029 73 194 8.7 14.8 0.00 0.00 0.00 64 1019.3
20260505180529 73 242 8.7 17.4 0.00 0.00 0.00 63 1019.2
20260505175530 74 229 4.3 15.6 0.00 0.00 0.00 63 1019.2
20260505175032 73 233 7.0 15.6 0.00 0.00 0.00 62 1019.2
20260505174559 74 146 7.0 15.6 0.00 0.00 0.00 61 1019.3
20260505174029 74 200 7.0 12.2 0.00 0.00 0.00 62 1019.2
20260505173531 74 194 6.1 13.9 0.00 0.00 0.00 62 1019.2
20260505173046 74 193 7.8 16.5 0.00 0.00 0.00 61 1019.2
20260505172531 74 182 6.1 16.5 0.00 0.00 0.00 61 1019.2
20260505172029 73 152 6.1 12.2 0.00 0.00 0.00 60 1019.1
20260505171542 74 153 7.0 12.2 0.00 0.00 0.00 60 1019.2
20260505171030 74 209 6.1 14.8 0.00 0.00 0.00 62 1019.2
20260505170529 74 226 7.0 14.8 0.00 0.00 0.00 59 1019.2
20260505170041 74 153 7.0 13.9 0.00 0.00 0.00 59 1019.2
20260505165529 75 203 5.2 13.9 0.00 0.00 0.00 59 1019.3
20260505165029 74 243 4.3 13.9 0.00 0.00 0.00 60 1019.3
20260505164548 74 168 7.0 13.9 0.00 0.00 0.00 60 1019.4
20260505164029 74 210 7.0 13.9 0.00 0.00 0.00 60 1019.4
20260505163529 74 152 4.3 13.0 0.00 0.00 0.00 59 1019.6
20260505163047 74 280 5.2 13.9 0.00 0.00 0.00 61 1019.5
20260505162528 73 231 9.6 13.9 0.00 0.00 0.00 60 1019.4
20260505162029 73 250 7.0 12.2 0.00 0.00 0.00 61 1019.4
20260505161549 73 243 7.0 12.2 0.00 0.00 0.00 60 1019.4
20260505161032 73 214 7.0 10.4 0.00 0.00 0.00 59 1019.5
20260505160530 73 292 4.3 13.0 0.00 0.00 0.00 59 1019.5
20260505153042 74 191 5.2 12.2 0.00 0.00 0.00 56 1019.7
20260505152532 74 179 7.0 12.2 0.00 0.00 0.00 56 1019.5
20260505152029 74 248 6.1 12.2 0.00 0.00 0.00 55 1019.6
20260505151549 74 218 4.3 12.2 0.00 0.00 0.00 55 1019.7
20260505151029 73 233 7.0 12.2 0.00 0.00 0.00 53 1019.6
20260505150531 73 262 4.3 11.3 0.00 0.00 0.00 57 1019.6
20260505140529 72 243 6.1 10.4 0.00 0.00 0.00 57 1019.6
20260505125029 69 214 3.5 7.0 0.00 0.00 0.00 72 1019.7
20260505124546 68 210 2.6 6.1 0.00 0.00 0.00 74 1019.5
20260505124029 68 222 3.5 6.1 0.00 0.00 0.00 76 1019.6
20260505123530 67 240 2.6 6.1 0.00 0.00 0.00 77 1019.5
20260505123041 67 245 2.6 6.1 0.00 0.00 0.00 79 1019.7
20260505122529 67 221 2.6 4.3 0.00 0.00 0.00 80 1019.7
20260505122035 66 207 3.5 4.3 0.00 0.00 0.00 81 1019.6
20260505121546 66 222 0.9 3.5 0.00 0.00 0.00 82 1019.5
20260505121029 66 214 0.9 2.6 0.00 0.00 0.00 84 1019.4
20260505120529 65 213 0.9 1.7 0.00 0.00 0.00 84 1019.5
20260505120045 65 213 0.9 1.7 0.00 0.00 0.00 84 1019.4
20260505115529 65 231 0.0 0.0 0.00 0.00 0.00 85 1019.4
20260505115030 65 0 0.0 0.0 0.00 0.00 0.00 87 1019.3
20260505114544 63 0 0.0 0.0 0.00 0.00 0.00 90 1019.4
20260505114030 61 0 0.0 0.0 0.00 0.00 0.00 91 1019.3
20260505113530 60 0 0.0 0.0 0.00 0.00 0.00 92 1019.3
20260505113041 59 0 0.0 0.0 0.00 0.00 0.00 93 1019.2
20260505112530 58 0 0.0 0.0 0.00 0.00 0.00 93 1019.3
20260505112029 57 0 0.0 0.0 0.00 0.00 0.00 94 1019.2
20260505111542 56 0 0.0 0.0 0.00 0.00 0.00 93 1019.1
20260505111029 55 0 0.0 0.0 0.00 0.00 0.00 94 1019.2
20260505110529 55 0 0.0 0.0 0.00 0.00 0.00 93 1019.2
20260505102028 54 0 0.0 0.0 0.00 0.00 0.00 93 1018.6
20260505101542 54 0 0.0 0.0 0.00 0.00 0.00 93 1018.6
20260505101029 54 0 0.0 0.0 0.00 0.00 0.00 93 1018.5
20260505100529 54 0 0.0 0.0 0.00 0.00 0.00 93 1018.5
20260505100042 54 0 0.0 0.0 0.00 0.00 0.00 93 1018.4
20260505095528 54 0 0.0 0.0 0.00 0.00 0.00 93 1018.4
20260505095033 54 0 0.0 0.0 0.00 0.00 0.00 93 1018.3
20260505094547 54 0 0.0 0.0 0.00 0.00 0.00 92 1018.3
20260505094029 54 0 0.0 0.0 0.00 0.00 0.00 92 1018.2
20260505093529 55 0 0.0 0.0 0.00 0.00 0.00 92 1018.2
20260505093049 55 0 0.0 0.0 0.00 0.00 0.00 92 1018.1
20260505092529 55 0 0.0 0.0 0.00 0.00 0.00 92 1018.1
20260505092029 55 0 0.0 0.0 0.00 0.00 0.00 92 1018.2
20260505091605 54 0 0.0 0.0 0.00 0.00 0.00 91 1018.3
20260505091028 55 0 0.0 0.0 0.00 0.00 0.00 91 1018.1
20260505090528 55 0 0.0 0.0 0.00 0.00 0.00 91 1018.0
20260505090049 55 0 0.0 0.0 0.00 0.00 0.00 90 1017.9
20260505085532 55 0 0.0 0.0 0.00 0.00 0.00 90 1018.0
20260505085030 55 0 0.0 0.0 0.00 0.00 0.00 90 1017.9
20260505084543 55 0 0.0 0.0 0.00 0.00 0.00 90 1017.9
20260505084028 55 0 0.0 0.0 0.00 0.00 0.00 90 1017.8
20260505083528 55 0 0.0 0.0 0.00 0.00 0.00 90 1017.9
20260505083046 55 0 0.0 0.0 0.00 0.00 0.00 90 1017.9
20260505082529 56 0 0.0 0.0 0.00 0.00 0.00 89 1017.8
20260505082029 56 0 0.0 0.0 0.00 0.00 0.00 89 1017.9
20260505081555 56 0 0.0 0.0 0.00 0.00 0.00 89 1017.9
20260505081029 56 0 0.0 0.0 0.00 0.00 0.00 89 1017.8
20260505080529 56 0 0.0 0.0 0.00 0.00 0.00 89 1017.9
20260505080056 56 0 0.0 0.0 0.00 0.00 0.00 89 1017.8
20260505075529 56 0 0.0 0.0 0.00 0.00 0.00 88 1017.7
20260505075029 56 0 0.0 0.0 0.00 0.00 0.00 88 1017.7
20260505074544 56 0 0.0 0.0 0.00 0.00 0.00 88 1017.7
20260505074029 56 0 0.0 0.0 0.00 0.00 0.00 88 1017.7
20260505073529 56 0 0.0 0.0 0.00 0.00 0.00 88 1017.7
20260505073046 56 0 0.0 0.0 0.00 0.00 0.00 87 1017.5
20260505072533 57 0 0.0 0.0 0.00 0.00 0.00 87 1017.6
20260505072029 57 0 0.0 0.0 0.00 0.00 0.00 86 1017.6
20260505071553 57 0 0.0 0.0 0.00 0.00 0.00 86 1017.7
20260505071029 57 0 0.0 0.0 0.00 0.00 0.00 86 1017.7
20260505070532 57 0 0.0 0.0 0.00 0.00 0.00 86 1017.8
20260505070049 57 0 0.0 0.0 0.00 0.00 0.00 85 1017.7
20260505065528 57 0 0.0 0.0 0.00 0.00 0.00 85 1017.7
20260505065028 58 0 0.0 0.0 0.00 0.00 0.00 84 1017.7
20260505064544 58 0 0.0 0.0 0.00 0.00 0.00 84 1017.7
20260505064028 58 0 0.0 0.0 0.00 0.00 0.00 83 1017.6
20260505063529 59 0 0.0 0.0 0.00 0.00 0.00 83 1017.7
20260505063103 59 0 0.0 0.0 0.00 0.00 0.00 82 1017.7
20260505062530 59 0 0.0 0.0 0.00 0.00 0.00 81 1017.7
20260505062029 60 0 0.0 0.9 0.00 0.00 0.00 80 1017.9
20260505061607 60 0 0.0 0.9 0.00 0.00 0.00 80 1017.9
20260505061031 60 0 0.0 0.9 0.00 0.00 0.00 80 1017.8
20260505060533 60 0 0.0 0.9 0.00 0.00 0.00 79 1017.9
20260505060048 60 0 0.0 0.9 0.00 0.00 0.00 78 1018.0
20260505055529 61 0 0.0 0.9 0.00 0.00 0.00 78 1018.0
20260505055030 61 0 0.0 0.9 0.00 0.00 0.00 77 1017.9
20260505054544 61 0 0.0 1.7 0.00 0.00 0.00 77 1018.0
20260505054028 61 0 0.0 3.5 0.00 0.00 0.00 77 1018.0
20260505053528 61 259 0.9 3.5 0.00 0.00 0.00 76 1018.1
20260505053047 61 248 0.9 1.7 0.00 0.00 0.00 76 1018.1
20260505052531 61 248 0.9 2.6 0.00 0.00 0.00 76 1018.1
20260505052029 62 247 1.7 2.6 0.00 0.00 0.00 75 1018.0
20260505051606 62 223 0.9 3.5 0.00 0.00 0.00 75 1018.0
20260505051029 62 268 1.7 3.5 0.00 0.00 0.00 75 1018.2
20260505050531 62 236 1.7 3.5 0.00 0.00 0.00 75 1018.1